CDT,Max TemperatureF,Mean TemperatureF,Min TemperatureF,Max Dew PointF,MeanDew PointF,Min DewpointF,Max Humidity, Mean Humidity, Min Humidity, Max Sea Level PressureIn, Mean Sea Level PressureIn, Min Sea Level PressureIn, Max VisibilityMiles, Mean VisibilityMiles, Min VisibilityMiles, Max Wind SpeedMPH, Mean Wind SpeedMPH, Max Gust SpeedMPH,PrecipitationIn, CloudCover, Events, WindDirDegrees
2013-9-1,78,70,60,67,59,53,90,68,46,29.95,29.83,29.74,10,10,10,16,6,22,0.00,5,Rain,298
2013-9-2,69,61,52,52,49,46,86,65,44,30.08,30.03,29.96,10,10,10,12,6,,0.00,4,,318
2013-9-3,75,60,45,58,49,45,99,70,38,30.11,30.06,30.01,10,8,0,10,2,,0.00,2,Fog,236
2013-9-4,83,67,51,60,55,50,94,69,44,30.19,30.09,30.03,10,10,10,9,2,,0.00,0,,353
2013-9-5,81,65,50,59,53,47,96,67,31,30.28,30.21,30.15,10,9,0,9,4,,0.00,2,Fog,100
2013-9-6,91,75,60,63,59,54,95,63,30,30.15,30.03,29.91,10,10,10,17,6,23,0.00,1,,155
2013-9-7,93,80,66,66,62,58,85,59,31,30.04,29.93,29.87,10,10,10,14,4,18,0.00,1,,19
2013-9-8,77,68,59,62,55,48,80,61,40,30.10,30.03,29.93,10,10,10,13,10,17,0.00,5,Rain,95
2013-9-9,91,80,68,70,66,62,90,69,44,29.93,29.78,29.65,10,8,4,15,7,24,0.01,4,,145
2013-9-10,82,76,69,70,64,61,87,71,49,29.98,29.89,29.74,10,10,7,10,5,17,0.00,3,Rain,239
2013-9-11,87,74,61,62,53,41,89,54,22,30.04,30.01,29.98,10,10,10,20,7,28,0.00,1,,263
2013-9-12,72,62,52,54,48,42,91,62,33,30.24,30.14,30.01,10,10,10,21,9,25,0.00,2,,325
2013-9-13,68,55,42,46,42,37,97,65,32,30.29,30.22,30.12,10,10,0,6,2,,0.00,0,Fog,30
2013-9-14,75,56,39,56,44,37,97,67,31,30.12,30.04,29.93,10,9,5,12,3,18,0.66,2,Rain,162
2013-9-15,67,58,47,56,52,42,98,80,62,30.33,30.09,29.92,10,9,3,18,7,25,0.32,7,Rain,22
2013-9-16,65,52,38,44,39,33,95,67,30,30.44,30.37,30.29,10,10,2,9,3,,0.00,0,,83
2013-9-17,68,54,40,56,46,39,96,76,44,30.30,30.18,30.01,10,9,3,17,6,21,0.02,3,Rain,127
2013-9-18,72,64,57,66,62,56,99,93,80,30.00,29.86,29.77,7,4,1,13,6,17,0.75,6,Rain-Thunderstorm,119
2013-9-19,81,74,66,70,66,63,97,87,64,29.80,29.74,29.71,10,7,3,24,4,29,0.31,3,Rain-Thunderstorm,167
2013-9-20,67,59,51,63,53,46,90,77,52,29.90,29.82,29.73,10,10,3,18,9,25,0.04,6,Rain,271
2013-9-21,63,54,46,48,44,41,92,73,44,29.98,29.94,29.90,10,10,10,13,6,16,0.00,3,,294
2013-9-22,68,54,39,48,44,38,96,74,45,30.05,29.99,29.93,10,10,10,13,5,18,0.00,0,,107
2013-9-23,72,59,46,50,47,43,92,69,39,30.04,30.00,29.95,10,10,10,17,7,24,0.00,0,,114
2013-9-24,75,60,45,51,47,42,96,71,31,30.03,29.98,29.94,10,9,4,12,4,17,0.00,0,,101
2013-9-25,72,58,45,53,48,44,98,74,37,30.02,29.97,29.93,10,8,0,12,3,17,0.00,0,Fog,114
2013-9-26,78,63,48,57,52,47,96,71,44,30.02,29.98,29.93,10,8,3,17,6,22,0.00,0,,114
2013-9-27,81,68,56,60,55,50,84,64,46,30.02,29.96,29.88,10,10,10,20,8,29,0.00,1,,121
2013-9-28,71,60,49,62,52,46,94,74,58,29.97,29.84,29.69,10,9,2,22,10,31,0.17,4,Rain,172
2013-9-29,73,57,41,47,44,40,97,68,32,30.00,29.94,29.87,10,10,10,14,4,17,0.00,0,,155
2013-9-30,75,64,52,50,47,44,77,54,36,29.87,29.75,29.68,10,10,10,23,9,32,0.00,0,,154